Location: Bratsk-Energetik
(56.3300°N, 101.7600°E)
Time: 23:47:24
(UTC+08:00)

ISS - Pass Details

Date: 15 May 2021
Orbit: 417 x 422 km, 51.6° (Epoch: 13 June)

Event Time Altitude Azimuth Distance (km) Brightness Sun altitude
Rises 23:26:24 0° 229° (SW) 2,360 -0.1 -11.6°
Reaches altitude 10° 23:28:43 10° 215° (SW) 1,499 -1.2 -11.7°
Maximum altitude 23:31:31 24° 159° (SSE) 907 -2.7 -11.9°
Drops below altitude 10° 23:34:19 10° 103° (ESE) 1,506 -1.3 -12.0°
Sets 23:36:39 0° 90° (E) 2,374 -0.2 -12.2°
